Location: Aigremont
(47.7188°N, 3.8925°E)
Time: 04:11:19
(UTC+00:00)

COSMO-SKYMED 1 - Pass Details

Date: 18 February 2020
Orbit: 621 x 623 km, 97.9° (Epoch: 09 April)

Event Time Altitude Azimuth Distance (km) Brightness Sun altitude
Rises 05:53:36 0° 201° (SSW) 2,892 5.9 -9.5°
Reaches altitude 10° 05:56:13 10° 217° (SW) 1,992 4.9 -9.1°
Maximum altitude 05:59:32 21° 267° (W) 1,400 3.8 -8.5°
Drops below altitude 10° 06:02:53 10° 318° (NW) 2,005 4.7 -8.0°
Sets 06:05:33 0° 334° (NNW) 2,918 5.7 -7.5°
